Location: Earls Croome
(52.0667°N, 2.2000°W)
Time: 07:52:26
(UTC+00:00)

Cosmos 2360 Rocket - Pass Details

Date: 17 November 2019
Orbit: 832 x 847 km, 71.0° (Epoch: 08 December)

Event Time Altitude Azimuth Distance (km) Brightness Sun altitude
Exits shadow 06:31:21 - 321° (NW) 2,788 4.4 -9.2°
Reaches altitude 10° 06:32:13 10° 318° (NW) 2,481 4.1 -9.1°
Maximum altitude 06:37:28 40° 251° (WSW) 1,235 2.7 -8.4°
Drops below altitude 10° 06:42:42 10° 184° (S) 2,464 4.9 -7.6°
Sets 06:45:15 0° 177° (S) 3,393 5.7 -7.2°
